{"data":{"norad_id":59603,"intl_designator":"2024-080C","name":"STARLINK-31776","alt_names":[],"object_type":"PAYLOAD","status":"ACTIVE","operator":null,"country":"US","launch_date":"2024-04-28","launch_site_code":"AFETR","launch_vehicle":null,"mission":null,"orbit_class":"UNKNOWN","rcs_meters":null,"size_class":null,"mass_kg":null,"dimensions":null,"purposes":["comms"],"wikipedia_slug":null,"has_3d_model":false,"image_url":null,"decayed_at":null,"tle_current":{"epoch":"2026-05-24T22:57:23.765184Z","epoch_age_seconds":72740,"freshness":"FRESH","line1":"1 59603U 24080C   26144.95652506  .00004440  00000+0  17071-3 0  9992","line2":"2 59603  43.0030 330.9134 0001521 263.9982  96.0697 15.27596668116152","mean_motion":15.27596668,"eccentricity":0.0001521,"inclination_deg":43.003,"raan_deg":330.9134,"arg_perigee_deg":263.9982,"mean_anomaly_deg":96.0697,"bstar":0.00017071,"rev_number":11615,"period_min":94.26572014492,"perigee_km":481.95560769122,"apogee_km":484.04276531916,"semimajor_km":6861.1361865052,"source":"CELESTRAK","updated_at":"2026-05-25T13:38:19.007771Z"}}}